Weather History for Cleveland, OH

Change the Weather History Date:

Tuesday, March 12, 2013

  Actual Average Record
Temperature  
Mean Temperature 36 °F 37 °F  
Max Temperature 40 °F 45 °F 75 °F (1990)
Min Temperature 31 °F 29 °F -5 °F (1948)
Degree Days  
Heating Degree Days 29 28  
Month to date heating degree days 368 357  
Since 1 July heating degree days 4547 4574  
Cooling Degree Days 0 0  
Month to date cooling degree days 0 0  
Year to date cooling degree days 0 0  
Moisture  
Dew Point 30 °F    
Average Humidity 82    
Maximum Humidity 89    
Minimum Humidity 75    
Precipitation  
Precipitation T in 0.09 in 1.01 in (1977)
Month to date precipitation 1.13 1.03  
Year to date precipitation 5.60 6.09  
Snow  
Snow T in 0.40 in - ()
Month to date snowfall 3.1 5.7  
Since 1 July snowfall 43.8 57.9  
Snow Depth 0.00 in    
Sea Level Pressure  
Sea Level Pressure 29.90 in    
Wind  
Wind Speed 15 mph (WSW)    
Max Wind Speed 20 mph    
Max Gust Speed 30 mph    
Visibility 10 miles    
Events Snow    
T = Trace of Precipitation, MM = Missing Value Source: NWS Daily Summary

Daily Weather History Graph

Daily Weather History Graph

Search for Another Location

Airport:

Trip Planner

Search our weather history database for the weather conditions in past years. The results will help you decide how hot, cold, wet, or windy it might be!

Date:

Astronomy

Mar. 12, 2013 Rise Set
Actual Time 7:43 AM EDT 7:30 PM EDT
Civil Twilight 7:16 AM EDT 7:58 PM EDT
Nautical Twilight 6:44 AM EDT 8:30 PM EDT
Astronomical Twilight 6:11 AM EDT 9:03 PM EDT
Moon 7:48 AM EDT (3/12) 8:46 PM EDT (3/12)
Length of Visible Light 12h 42m
Length of Day
11h 47m
New Moon, 1% of the Moon is Illuminated
Mar 12
New Moon
Mar 19
First Quarter
Mar 27
Full
Apr 3
Last Quarter
Apr 10
New

Hourly Weather History & Observations

Time (EDT) Temp. Windchill Dew Point Humidity Pressure Visibility Wind Dir Wind Speed Gust Speed Precip Events Conditions
12:32 AM 39.9 °F 30.0 °F 33.1 °F 77% 29.78 in 10.0 mi WSW 21.9 mph 33.4 mph N/A   Overcast
12:51 AM 39.9 °F 31.1 °F 33.1 °F 77% 29.80 in 10.0 mi WSW 17.3 mph 25.3 mph N/A   Overcast
1:51 AM 37.4 °F 27.5 °F 30.2 °F 75% 29.80 in 10.0 mi WSW 18.4 mph 27.6 mph N/A   Overcast
1:57 AM 37.9 °F 29.6 °F 30.9 °F 76% 29.80 in 10.0 mi WSW 13.8 mph 27.6 mph N/A   Overcast
2:02 AM 37.9 °F 30.0 °F 30.9 °F 76% 29.80 in 10.0 mi WSW 12.7 mph 26.5 mph N/A   Overcast
2:45 AM 37.4 °F 27.8 °F 30.2 °F 75% 29.81 in 10.0 mi WSW 17.3 mph 28.8 mph N/A   Overcast
2:51 AM 37.0 °F 27.7 °F 30.9 °F 79% 29.83 in 10.0 mi WSW 16.1 mph - N/A   Overcast
3:51 AM 37.0 °F 27.7 °F 30.0 °F 76% 29.83 in 10.0 mi WSW 16.1 mph 28.8 mph N/A   Overcast
4:51 AM 37.0 °F 28.1 °F 30.9 °F 79% 29.84 in 10.0 mi WSW 15.0 mph - N/A   Overcast
5:51 AM 36.0 °F 27.5 °F 30.9 °F 82% 29.85 in 10.0 mi SW 12.7 mph - N/A   Overcast
6:51 AM 36.0 °F 26.7 °F 30.0 °F 79% 29.87 in 10.0 mi WSW 15.0 mph 20.7 mph N/A   Overcast
7:25 AM 35.1 °F 26.4 °F 30.9 °F 85% 29.87 in 9.0 mi SW 12.7 mph - 0.00 in   Overcast
7:30 AM 34.0 °F 25.5 °F 30.9 °F 89% 29.87 in 9.0 mi WSW 11.5 mph - 0.00 in Snow Light Snow
7:51 AM 34.0 °F 24.6 °F 30.9 °F 89% 29.88 in 10.0 mi SW 13.8 mph 20.7 mph 0.00 in   Overcast
8:51 AM 33.8 °F 23.5 °F 30.2 °F 87% 29.89 in 8.0 mi West 16.1 mph - N/A Snow Light Snow
9:14 AM 35.1 °F 27.4 °F 30.9 °F 85% 29.90 in 10.0 mi WSW 10.4 mph - 0.00 in   Overcast
9:51 AM 35.6 °F 26.2 °F 30.2 °F 81% 29.90 in 10.0 mi WSW 15.0 mph - N/A   Overcast
10:51 AM 35.1 °F 25.9 °F 30.0 °F 82% 29.93 in 10.0 mi WSW 13.8 mph 21.9 mph N/A   Overcast
11:51 AM 35.6 °F 25.5 °F 30.2 °F 81% 29.91 in 10.0 mi WSW 17.3 mph 23.0 mph N/A   Overcast
12:51 PM 35.1 °F 25.9 °F 30.0 °F 82% 29.94 in 9.0 mi WSW 13.8 mph - N/A   Overcast
1:09 PM 34.0 °F 24.2 °F 30.9 °F 89% 29.91 in 4.0 mi WSW 15.0 mph - 0.00 in Snow Light Snow
1:51 PM 36.0 °F 26.0 °F 30.9 °F 82% 29.94 in 10.0 mi WSW 17.3 mph - 0.00 in   Overcast
2:51 PM 36.0 °F 26.3 °F 30.0 °F 79% 29.94 in 10.0 mi WSW 16.1 mph - N/A   Overcast
3:51 PM 35.1 °F 24.1 °F 28.9 °F 78% 29.94 in 10.0 mi West 19.6 mph - 0.00 in   Overcast
4:51 PM 36.0 °F 27.5 °F 28.9 °F 76% 29.94 in 9.0 mi SW 12.7 mph - 0.00 in Snow Light Snow
5:01 PM 36.0 °F 28.0 °F 28.0 °F 73% 29.92 in 9.0 mi WSW 11.5 mph - 0.00 in Snow Light Snow
5:19 PM 35.1 °F 25.2 °F 27.0 °F 72% 29.92 in 10.0 mi WSW 16.1 mph - 0.00 in   Overcast
5:51 PM 35.1 °F 24.8 °F 27.0 °F 72% 29.95 in 10.0 mi SW 17.3 mph 23.0 mph 0.00 in   Overcast
6:51 PM 34.0 °F 24.2 °F 28.0 °F 79% 29.97 in 9.0 mi WSW 15.0 mph 21.9 mph 0.00 in   Overcast
7:51 PM 34.0 °F 23.0 °F 26.1 °F 73% 29.99 in 9.0 mi West 18.4 mph 25.3 mph 0.00 in Snow Light Snow
8:13 PM 34.0 °F 24.6 °F 25.0 °F 70% 29.98 in 9.0 mi West 13.8 mph - 0.00 in   Overcast
8:51 PM 33.1 °F 24.9 °F 26.1 °F 75% 30.01 in 9.0 mi WSW 10.4 mph - 0.00 in Snow Light Snow
9:51 PM 33.8 °F 27.7 °F 26.6 °F 75% 29.98 in 10.0 mi SW 6.9 mph - N/A   Overcast
10:51 PM 33.1 °F 27.7 °F 27.0 °F 78% 30.00 in 10.0 mi SW 5.8 mph - N/A   Overcast
11:51 PM 32.0 °F 24.8 °F 27.0 °F 82% 29.99 in 10.0 mi SSW 8.1 mph - N/A   Scattered Clouds